Tracking 19489 objects as of 22-Jan-2019
HD Live streaming from Space Station
objects crossing your sky now

EXPRESS 1

Track EXPRESS 1 now!
EXPRESS 1 is classified as:


NORAD ID: 23319
Int'l Code: 1994-067A
Perigee: 35,894.5 km
Apogee: 35,940.6 km
Inclination: 13.6 °
Period: 1,442.4 minutes
Semi major axis: 42288 km
RCS: 8.7707 m2 (large)
Launch date: October 13, 1994
Source: Commonwealth of Independent States (former USSR) (CIS)
Launch site: TYURATAM MISSILE AND SPACE COMPLEX (TTMTR)
aabbcc
Your satellite tracking list
Your tracking list is empty




NASA's NSSDC Master Catalog

Two Line Element Set (TLE):
1 23319U 94067A   19021.78205434 -.00000276  00000-0  00000+0 0  9995
2 23319  13.5588  23.2075 0005449 245.8574 103.6290  0.99831876 88611
Source of the keplerian elements: AFSPC